When you browse on this site, cookies collect data to enhance your experience and personalize the content and advertising you see.
Visit our Privacy Policy to learn more. By continuing to use the site, you agree to this use of cookies and data.
  • In Lithuania
  • List of Countries
  • For 7 days
  • Water Temperature
  • Weather Map
  • Weather Widgets
  • user-avatar
    Login

    Hourly Weather Darwin

    Today, 17 September, Tuesday

    Time Temperature Precipitation Wind Pressure Humidity
    00:00 +21°C° 0 mm 2 mps 761 mmHg 85%
    01:00 +22°C° 0 mm 3 mps 761 mmHg 85%
    02:00 +22°C° 0 mm 3 mps 760 mmHg 85%
    03:00 +23°C° 0 mm 2 mps 760 mmHg 83%
    04:00 +23°C° 0 mm 2 mps 761 mmHg 87%
    05:00 +21°C° 0 mm 2 mps 761 mmHg 90%
    06:00 +20°C° 0 mm 2 mps 761 mmHg 94%
    07:00 +24°C° 0 mm 2 mps 761 mmHg 78%
    08:00 +27°C° 0 mm 2 mps 762 mmHg 61%
    09:00 +31°C° 0 mm 3 mps 762 mmHg 38%
    10:00 +34°C° 0 mm 3 mps 762 mmHg 33%
    11:00 +36°C° 0 mm 4 mps 761 mmHg 28%
    12:00 +38°C° 0 mm 4 mps 760 mmHg 23%
    13:00 +38°C° 0 mm 4 mps 760 mmHg 24%
    14:00 +37°C° 0 mm 5 mps 759 mmHg 26%
    15:00 +37°C° 0 mm 5 mps 758 mmHg 29%
    16:00 +35°C° 0 mm 5 mps 759 mmHg 34%
    17:00 +33°C° 0 mm 5 mps 759 mmHg 40%
    18:00 +30°C° 0 mm 4 mps 759 mmHg 45%
    19:00 +28°C° 0 mm 4 mps 759 mmHg 55%
    20:00 +26°C° 0 mm 4 mps 760 mmHg 64%
    21:00 +25°C° 0 mm 4 mps 761 mmHg 74%
    22:00 +24°C° 0 mm 3 mps 761 mmHg 78%
    23:00 +24°C° 0 mm 2 mps 761 mmHg 83%

    Tomorrow, 18 September, Wednesday

    Time Temperature Precipitation Wind Pressure Humidity
    00:00 +23°C° 0 mm 1 mps 761 mmHg 87%
    01:00 +23°C° 0 mm 1 mps 761 mmHg 89%
    02:00 +23°C° 0 mm 2 mps 761 mmHg 90%
    03:00 +23°C° 0 mm 2 mps 761 mmHg 92%
    04:00 +21°C° 0 mm 2 mps 761 mmHg 92%
    05:00 +22°C° 0 mm 1 mps 762 mmHg 93%
    06:00 +22°C° 0 mm 1 mps 762 mmHg 93%
    07:00 +25°C° 0 mm 2 mps 762 mmHg 76%
    08:00 +28°C° 0 mm 2 mps 762 mmHg 59%
    09:00 +31°C° 0 mm 2 mps 763 mmHg 42%
    10:00 +34°C° 0 mm 3 mps 762 mmHg 33%
    11:00 +36°C° 0 mm 3 mps 762 mmHg 25%
    12:00 +38°C° 0 mm 3 mps 761 mmHg 17%
    13:00 +39°C° 0 mm 3 mps 760 mmHg 17%
    14:00 +40°C° 0 mm 4 mps 759 mmHg 18%
    15:00 +40°C° 0 mm 4 mps 758 mmHg 18%
    16:00 +36°C° 0 mm 4 mps 758 mmHg 24%
    17:00 +34°C° 0 mm 3 mps 759 mmHg 31%
    18:00 +30°C° 0 mm 3 mps 759 mmHg 37%
    19:00 +28°C° 0 mm 3 mps 759 mmHg 49%
    20:00 +26°C° 0 mm 3 mps 760 mmHg 61%
    21:00 +24°C° 0 mm 3 mps 761 mmHg 74%
    22:00 +24°C° 0 mm 2 mps 761 mmHg 78%
    23:00 +23°C° 0 mm 2 mps 761 mmHg 82%

    Day after tomorrow, 19 September, Thursday

    Time Temperature Precipitation Wind Pressure Humidity
    00:00 +23°C° 0 mm 1 mps 761 mmHg 86%
    01:00 +23°C° 0 mm 1 mps 761 mmHg 86%
    02:00 +22°C° 0 mm 1 mps 761 mmHg 87%
    03:00 +22°C° 0 mm 1 mps 760 mmHg 88%
    04:00 +22°C° 0 mm 1 mps 760 mmHg 89%
    05:00 +21°C° 0 mm 1 mps 761 mmHg 89%
    06:00 +20°C° 0 mm 2 mps 761 mmHg 90%
    07:00 +24°C° 0 mm 1 mps 761 mmHg 74%
    08:00 +28°C° 0 mm 1 mps 761 mmHg 59%
    09:00 +31°C° 0 mm 1 mps 762 mmHg 43%
    10:00 +34°C° 0 mm 2 mps 761 mmHg 34%
    11:00 +36°C° 0 mm 3 mps 760 mmHg 25%
    12:00 +39°C° 0 mm 3 mps 759 mmHg 16%
    13:00 +38°C° 0 mm 4 mps 758 mmHg 19%
    14:00 +37°C° 0 mm 5 mps 758 mmHg 23%
    15:00 +36°C° 0 mm 5 mps 757 mmHg 27%
    16:00 +34°C° 0 mm 5 mps 757 mmHg 29%
    17:00 +32°C° 0 mm 4 mps 757 mmHg 31%
    18:00 +30°C° 0 mm 4 mps 758 mmHg 33%
    19:00 +28°C° 0 mm 4 mps 758 mmHg 45%
    20:00 +26°C° 0 mm 4 mps 759 mmHg 58%
    21:00 +23°C° 0 mm 4 mps 759 mmHg 70%
    22:00 +23°C° 0 mm 4 mps 760 mmHg 75%
    23:00 +24°C° 0 mm 3 mps 760 mmHg 81%

    20 September, Friday

    Time Temperature Precipitation Wind Pressure Humidity
    00:00 +23°C° 0 mm 2 mps 760 mmHg 86%
    01:00 +21°C° 0 mm 2 mps 759 mmHg 88%
    02:00 +22°C° 0 mm 1 mps 759 mmHg 90%
    03:00 +21°C° 0 mm 1 mps 759 mmHg 93%
    04:00 +21°C° 0 mm 1 mps 759 mmHg 92%
    05:00 +21°C° 0 mm 1 mps 759 mmHg 92%
    06:00 +21°C° 0 mm 1 mps 760 mmHg 92%
    07:00 +25°C° 0 mm 1 mps 760 mmHg 76%
    08:00 +29°C° 0 mm 1 mps 760 mmHg 60%
    09:00 +32°C° 0 mm 1 mps 761 mmHg 45%
    10:00 +34°C° 0 mm 1 mps 760 mmHg 38%
    11:00 +37°C° 0 mm 2 mps 759 mmHg 31%
    12:00 +39°C° 0 mm 2 mps 759 mmHg 25%
    13:00 +38°C° 0 mm 3 mps 758 mmHg 28%
    14:00 +37°C° 0 mm 4 mps 758 mmHg 31%
    15:00 +36°C° 0 mm 4 mps 757 mmHg 35%
    16:00 +34°C° 0 mm 4 mps 757 mmHg 41%
    17:00 +32°C° 0 mm 4 mps 757 mmHg 48%
    18:00 +28°C° 0 mm 4 mps 757 mmHg 55%
    19:00 +27°C° 0 mm 4 mps 758 mmHg 65%
    20:00 +26°C° 0 mm 4 mps 758 mmHg 74%
    21:00 +23°C° 0 mm 4 mps 759 mmHg 84%
    22:00 +24°C° 0 mm 3 mps 759 mmHg 86%
    23:00 +24°C° 0 mm 3 mps 759 mmHg 88%

    21 September, Saturday

    Time Temperature Precipitation Wind Pressure Humidity
    00:00 +23°C° 0 mm 2 mps 759 mmHg 89%
    01:00 +22°C° 0 mm 3 mps 759 mmHg 91%
    02:00 +22°C° 0 mm 3 mps 759 mmHg 92%
    03:00 +22°C° 0 mm 3 mps 759 mmHg 93%
    04:00 +22°C° 0 mm 3 mps 759 mmHg 93%
    05:00 +21°C° 0 mm 3 mps 760 mmHg 94%
    06:00 +21°C° 0 mm 2 mps 760 mmHg 94%
    07:00 +25°C° 0 mm 2 mps 760 mmHg 80%
    08:00 +28°C° 0 mm 2 mps 760 mmHg 66%
    09:00 +32°C° 0 mm 2 mps 760 mmHg 52%
    10:00 +35°C° 0 mm 2 mps 760 mmHg 46%
    11:00 +36°C° 0 mm 2 mps 759 mmHg 40%
    12:00 +38°C° 0 mm 2 mps 759 mmHg 35%
    13:00 +37°C° 0 mm 3 mps 758 mmHg 37%
    14:00 +37°C° 0 mm 4 mps 758 mmHg 39%
    15:00 +36°C° 0 mm 5 mps 757 mmHg 42%
    16:00 +34°C° 0 mm 5 mps 757 mmHg 46%
    17:00 +32°C° 0 mm 5 mps 758 mmHg 51%
    18:00 +30°C° 0 mm 5 mps 758 mmHg 56%
    19:00 +28°C° 0 mm 4 mps 759 mmHg 65%
    20:00 +27°C° 0 mm 4 mps 759 mmHg 75%
    21:00 +26°C° 0 mm 4 mps 760 mmHg 84%
    22:00 +26°C° 0 mm 4 mps 760 mmHg 85%
    23:00 +26°C° 0 mm 3 mps 760 mmHg 85%

    22 September, Sunday

    Time Temperature Precipitation Wind Pressure Humidity
    00:00 +26°C° 0 mm 2 mps 760 mmHg 85%
    01:00 +25°C° 0 mm 2 mps 760 mmHg 88%
    02:00 +24°C° 0 mm 2 mps 760 mmHg 90%
    03:00 +24°C° 0 mm 2 mps 759 mmHg 93%
    04:00 +24°C° 0 mm 2 mps 760 mmHg 93%
    05:00 +24°C° 0 mm 2 mps 760 mmHg 93%
    06:00 +23°C° 0 mm 2 mps 760 mmHg 93%
    07:00 +26°C° 0 mm 3 mps 761 mmHg 79%
    08:00 +29°C° 0 mm 3 mps 761 mmHg 65%
    09:00 +33°C° 0 mm 3 mps 761 mmHg 52%
    10:00 +35°C° 0 mm 3 mps 761 mmHg 44%
    11:00 +37°C° 0 mm 4 mps 760 mmHg 37%
    12:00 +40°C° 0 mm 4 mps 759 mmHg 30%
    13:00 +39°C° 0 mm 5 mps 759 mmHg 33%
    14:00 +37°C° 0 mm 5 mps 758 mmHg 37%
    15:00 +36°C° 0 mm 6 mps 758 mmHg 40%
    16:00 +35°C° 0 mm 5 mps 758 mmHg 44%
    17:00 +33°C° 0 mm 4 mps 758 mmHg 48%
    18:00 +31°C° 0 mm 3 mps 758 mmHg 52%
    19:00 +30°C° 0 mm 3 mps 759 mmHg 63%
    20:00 +28°C° 0 mm 3 mps 760 mmHg 73%
    21:00 +26°C° 0 mm 3 mps 760 mmHg 83%
    22:00 +26°C° 0 mm 3 mps 760 mmHg 85%
    23:00 +26°C° 0 mm 2 mps 760 mmHg 87%
    Show more